Weather Roundup
Issued by NWS Springfield, MO

Home | Current Version | Previous Version | Text Only | Print | Product List | Glossary On
Versions: 1 2 3 4 5 6 7 8 9 10 11 12 13 14 15 16 17 18 19 20 21 22 23 24 25 26 27 28 29 30 31 32 33 34 35 36 37 38 39 40 41 42 43 44 45 46 47 48 49 50
000
NZUS99 KSGF 190807
HRRSGF

HOURLY WEATHER
NATIONAL WEATHER SERVICE SPRINGFIELD MO
300 AM CDT FRI SEP 19 2014

......SGF CWA......

CITY           SKY/WX    TMP DP  RH WIND       PRES   REMARKS
SPRINGFIELD    MOCLDY    62  60  93 SE7       30.03F
JOPLIN         CLEAR     62  61  96 SE6       30.01F
WEST PLAINS    FOG       55  54  96 NE3       30.06F VSB 3/4
ROLLA          CLEAR     57  56  96 E7        30.05F FOG
OSAGE BEACH    CLOUDY    57  54  88 CALM      30.05F VSB<1/4
BRANSON        CLOUDY    64  63  94 CALM      30.05F FOG

......SURROUNDING SGF CWA......

CITY           SKY/WX    TMP DP  RH WIND       PRES   REMARKS
CHANUTE        CLEAR     64  63  96 SE8       29.99F
PARSONS        CLEAR     65  63  93 VRB5      30.00F
COFFEYVILLE    CLEAR     64  62  93 E5        29.99S
EMPORIA        CLEAR     64  63  96 SE8       29.98F
GROVE OK       CLEAR     63  63 100 CALM      30.01S FOG
ROGERS AR      CLOUDY    64  61  88 E9        30.04S
SILOAM SPRINGS CLOUDY    64  59  82 E6        30.03R
HARRISON AR    CLOUDY    64  63  96 SE5       30.05S FOG
NEAR YELLVILLE CLOUDY    64  59  82 CALM      30.04S VSB 1/2

......KANSAS AND MISSOURI......

CITY           SKY/WX    TMP DP  RH WIND       PRES   REMARKS
KANSAS CTY INT PTCLDY    61  60  97 SE8       30.01F
DOWNTOWN KC    MOCLDY    63  60  90 E3        30.01F
COLUMBIA       PTCLDY    60  56  86 E7          N/A
SEDALIA        FOG       59  57  93 SE5       30.05F VSB 1/4
ST JOSEPH      PTCLDY    60  59  96 SE5       30.01F FOG
ST LOUIS       CLEAR     59  53  80 SE5       30.08F
SPIRIT OF STL  CLEAR     52  51  97 CALM      30.07S FOG
KIRKSVILLE     CLEAR     53  50  89 SE5       30.07S
WICHITA        CLEAR     66  62  87 S6        29.96F
TOPEKA         CLEAR     63  62  97 E6        29.99F
OLATHE         CLOUDY    61  60  97 SE8       30.01S FOG

......TENNESSEE......

CITY           SKY/WX    TMP DP  RH WIND       PRES   REMARKS
MEMPHIS        PTCLDY    69  66  90 CALM      29.98F
NASHVILLE      PTCLDY    61  59  93 N7        30.04S

......ARKANSAS.......

CITY           SKY/WX    TMP DP  RH WIND       PRES   REMARKS
FAYETTEVILLE   CLOUDY    65  64  97 E5        30.02S
FT SMITH       CLOUDY    69  65  86 E7        29.98F
LITTLE ROCK    PTCLDY    67  62  84 N3        29.99F

......OKLAHOMA.......

CITY           SKY/WX    TMP DP  RH WIND       PRES   REMARKS
TULSA          CLEAR     69  66  90 SE6       29.97S
PONCA CITY     CLEAR     67  63  87 SE5       29.96F
MCALESTER      PTCLDY    71  67  87 E5        29.96S
OKLAHOMA CITY  PTCLDY    67  64  90 CALM      29.96F

......IOWA............

CITY           SKY/WX    TMP DP  RH WIND       PRES   REMARKS
DES MOINES     PTCLDY    58  54  86 S8        30.03F
QUAD CITIES    CLEAR     52  49  89 E7        30.11S FOG

......ILLINOIS........

CITY           SKY/WX    TMP DP  RH WIND       PRES   REMARKS
QUINCY         CLEAR     55  50  83 SE6       30.08F
CHICAGO        CLEAR     55  52  89 E5        30.14F



USA.gov is the U.S. government's official web portal to all federal, state and local government web resources and services.